Time,TemperatureF,DewpointF,PressureIn,WindDirection,WindDirectionDegrees,WindSpeedMPH,WindSpeedGustMPH,Humidity,HourlyPrecipIn,Conditions,Clouds,dailyrainin,SoftwareType,DateUTC
2013-03-06 00:00:00,38.5,9.8,29.68,West,270,6.0,11.0,30,0.00,,---,0.00,VWS V14.01,2013-03-06 06:00:00,
2013-03-06 00:05:00,38.3,9.6,29.68,West,270,10.7,12.3,30,0.00,,---,0.00,VWS V14.01,2013-03-06 06:05:00,
2013-03-06 00:10:00,38.3,8.8,29.68,West,270,10.3,12.3,29,0.00,,---,0.00,VWS V14.01,2013-03-06 06:10:00,
2013-03-06 00:15:00,38.1,8.7,29.68,NW,315,7.2,12.1,29,0.00,,---,0.00,VWS V14.01,2013-03-06 06:15:00,
2013-03-06 00:20:00,38.1,8.7,29.68,West,270,3.6,6.0,29,0.00,,---,0.00,VWS V14.01,2013-03-06 06:20:00,
2013-03-06 00:25:00,37.9,8.5,29.68,NW,315,7.8,7.8,29,0.00,,---,0.00,VWS V14.01,2013-03-06 06:25:00,
2013-03-06 00:30:00,37.6,8.2,29.68,WNW,292,7.6,7.6,29,0.00,,---,0.00,VWS V14.01,2013-03-06 06:30:00,
2013-03-06 00:35:00,37.6,8.2,29.68,West,270,6.5,8.7,29,0.00,,---,0.00,VWS V14.01,2013-03-06 06:35:00,
2013-03-06 00:40:00,37.4,8.1,29.68,West,270,8.5,12.5,29,0.00,,---,0.00,VWS V14.01,2013-03-06 06:40:00,
2013-03-06 00:45:00,37.4,8.1,29.68,WNW,292,5.8,10.5,29,0.00,,---,0.00,VWS V14.01,2013-03-06 06:45:00,
2013-03-06 00:50:00,37.0,8.5,29.71,West,270,5.6,7.8,30,0.00,,---,0.00,VWS V14.01,2013-03-06 06:50:00,
2013-03-06 00:55:00,37.0,8.5,29.71,West,270,6.0,9.8,30,0.00,,---,0.00,VWS V14.01,2013-03-06 06:55:00,
2013-03-06 01:00:00,36.9,8.3,29.71,WNW,292,3.4,9.0,30,0.00,,---,0.00,VWS V14.01,2013-03-06 07:00:00,
2013-03-06 01:05:00,36.7,8.2,29.71,WNW,292,3.1,8.5,30,0.00,,---,0.00,VWS V14.01,2013-03-06 07:05:00,
2013-03-06 01:11:00,36.7,8.2,29.71,WNW,292,8.5,8.7,30,0.00,,---,0.00,VWS V14.01,2013-03-06 07:11:00,
2013-03-06 01:16:00,36.3,7.9,29.71,WNW,292,4.5,8.1,30,0.00,,---,0.00,VWS V14.01,2013-03-06 07:16:00,
2013-03-06 01:21:00,36.1,7.7,29.71,WSW,248,5.8,5.8,30,0.00,,---,0.00,VWS V14.01,2013-03-06 07:21:00,
2013-03-06 01:26:00,36.1,7.7,29.71,WNW,292,5.8,7.6,30,0.00,,---,0.00,VWS V14.01,2013-03-06 07:26:00,
2013-03-06 01:31:00,35.8,7.4,29.71,West,270,6.3,7.8,30,0.00,,---,0.00,VWS V14.01,2013-03-06 07:31:00,
2013-03-06 01:36:00,35.8,7.4,29.71,NNW,338,2.7,4.9,30,0.00,,---,0.00,VWS V14.01,2013-03-06 07:36:00,
2013-03-06 01:41:00,35.6,7.2,29.71,NNE,22,10.3,10.3,30,0.00,,---,0.00,VWS V14.01,2013-03-06 07:41:00,
2013-03-06 01:46:00,35.6,7.2,29.71,WSW,248,3.4,5.6,30,0.00,,---,0.00,VWS V14.01,2013-03-06 07:46:00,
2013-03-06 01:51:00,35.4,7.1,29.71,WNW,292,4.9,6.3,30,0.00,,---,0.00,VWS V14.01,2013-03-06 07:51:00,
2013-03-06 01:56:00,35.1,6.8,29.71,NNW,338,3.4,5.4,30,0.00,,---,0.00,VWS V14.01,2013-03-06 07:56:00,
2013-03-06 02:01:00,35.1,6.8,29.71,NW,315,4.0,7.8,30,0.00,,---,0.00,VWS V14.01,2013-03-06 08:01:00,
2013-03-06 02:06:00,34.9,6.6,29.71,WNW,292,4.0,5.6,30,0.00,,---,0.00,VWS V14.01,2013-03-06 08:06:00,
2013-03-06 02:11:00,34.9,6.6,29.71,South,180,3.1,4.9,30,0.00,,---,0.00,VWS V14.01,2013-03-06 08:11:00,
2013-03-06 02:16:00,34.7,6.4,29.71,NW,315,2.7,7.6,30,0.00,,---,0.00,VWS V14.01,2013-03-06 08:16:00,
2013-03-06 02:21:00,34.5,7.0,29.71,WNW,292,5.8,7.4,31,0.00,,---,0.00,VWS V14.01,2013-03-06 08:21:00,
2013-03-06 02:26:00,34.5,6.3,29.71,West,270,6.3,8.5,30,0.00,,---,0.00,VWS V14.01,2013-03-06 08:26:00,
2013-03-06 02:31:00,34.5,6.3,29.74,West,270,4.9,8.7,30,0.00,,---,0.00,VWS V14.01,2013-03-06 08:31:00,
2013-03-06 02:36:00,34.3,6.9,29.74,West,270,3.6,6.3,31,0.00,,---,0.00,VWS V14.01,2013-03-06 08:36:00,
2013-03-06 02:41:00,34.3,6.9,29.74,WNW,292,5.8,9.6,31,0.00,,---,0.00,VWS V14.01,2013-03-06 08:41:00,
2013-03-06 02:46:00,34.3,6.1,29.71,WSW,248,4.9,10.1,30,0.00,,---,0.00,VWS V14.01,2013-03-06 08:46:00,
2013-03-06 02:51:00,34.3,6.9,29.71,WNW,292,5.8,9.8,31,0.00,,---,0.00,VWS V14.01,2013-03-06 08:51:00,
2013-03-06 02:56:00,34.3,6.1,29.71,WNW,292,5.4,10.1,30,0.00,,---,0.00,VWS V14.01,2013-03-06 08:56:00,
2013-03-06 03:01:00,34.3,6.9,29.71,WSW,248,3.4,11.0,31,0.00,,---,0.00,VWS V14.01,2013-03-06 09:01:00,
2013-03-06 03:06:00,34.2,6.7,29.71,WNW,292,3.8,5.6,31,0.00,,---,0.00,VWS V14.01,2013-03-06 09:06:00,
2013-03-06 03:11:00,34.0,6.5,29.71,West,270,4.3,6.3,31,0.00,,---,0.00,VWS V14.01,2013-03-06 09:11:00,
2013-03-06 03:16:00,34.0,6.5,29.74,NE,45,2.5,8.7,31,0.00,,---,0.00,VWS V14.01,2013-03-06 09:16:00,
2013-03-06 03:21:00,33.8,6.4,29.74,NW,315,2.9,8.7,31,0.00,,---,0.00,VWS V14.01,2013-03-06 09:21:00,
2013-03-06 03:26:00,33.8,6.4,29.74,WSW,248,3.8,8.7,31,0.00,,---,0.00,VWS V14.01,2013-03-06 09:26:00,
2013-03-06 03:31:00,33.8,6.4,29.74,NE,45,4.3,8.1,31,0.00,,---,0.00,VWS V14.01,2013-03-06 09:31:00,
2013-03-06 03:36:00,33.6,6.2,29.74,WNW,292,2.9,4.9,31,0.00,,---,0.00,VWS V14.01,2013-03-06 09:36:00,
2013-03-06 03:41:00,33.4,6.1,29.74,West,270,4.3,4.9,31,0.00,,---,0.00,VWS V14.01,2013-03-06 09:41:00,
2013-03-06 03:46:00,33.3,5.9,29.74,NNE,22,3.4,5.8,31,0.00,,---,0.00,VWS V14.01,2013-03-06 09:46:00,
2013-03-06 03:51:00,33.1,5.8,29.74,West,270,5.4,5.4,31,0.00,,---,0.00,VWS V14.01,2013-03-06 09:51:00,
2013-03-06 03:56:00,33.1,5.8,29.74,WSW,248,3.6,5.6,31,0.00,,---,0.00,VWS V14.01,2013-03-06 09:56:00,
2013-03-06 04:02:00,32.9,5.6,29.74,West,270,4.3,5.6,31,0.00,,---,0.00,VWS V14.01,2013-03-06 10:02:00,
2013-03-06 04:07:00,32.7,5.4,29.74,NNW,338,2.7,8.5,31,0.00,,---,0.00,VWS V14.01,2013-03-06 10:07:00,
2013-03-06 04:12:00,32.7,5.4,29.74,West,270,2.9,6.0,31,0.00,,---,0.00,VWS V14.01,2013-03-06 10:12:00,
2013-03-06 04:17:00,32.5,5.3,29.74,NNW,338,2.7,6.0,31,0.00,,---,0.00,VWS V14.01,2013-03-06 10:17:00,
2013-03-06 04:22:00,32.5,6.0,29.74,NW,315,3.4,6.3,32,0.00,,---,0.00,VWS V14.01,2013-03-06 10:22:00,
2013-03-06 04:27:00,32.5,6.0,29.74,WNW,292,4.7,4.7,32,0.00,,---,0.00,VWS V14.01,2013-03-06 10:27:00,
2013-03-06 04:32:00,32.4,5.8,29.74,NW,315,2.7,5.6,32,0.00,,---,0.00,VWS V14.01,2013-03-06 10:32:00,
2013-03-06 04:37:00,32.4,5.8,29.74,West,270,2.0,7.6,32,0.00,,---,0.00,VWS V14.01,2013-03-06 10:37:00,
2013-03-06 04:42:00,32.2,5.7,29.74,WSW,248,4.0,4.0,32,0.00,,---,0.00,VWS V14.01,2013-03-06 10:42:00,
2013-03-06 04:47:00,32.2,5.7,29.74,WNW,292,3.1,5.4,32,0.00,,---,0.00,VWS V14.01,2013-03-06 10:47:00,
2013-03-06 04:52:00,32.0,5.5,29.74,NW,315,3.6,4.7,32,0.00,,---,0.00,VWS V14.01,2013-03-06 10:52:00,
2013-03-06 04:57:00,32.0,5.5,29.74,NW,315,2.5,4.9,32,0.00,,---,0.00,VWS V14.01,2013-03-06 10:57:00,
2013-03-06 05:02:00,31.8,5.3,29.74,WNW,292,2.5,5.8,32,0.00,,---,0.00,VWS V14.01,2013-03-06 11:02:00,
2013-03-06 05:07:00,31.6,5.2,29.74,NW,315,3.6,4.7,32,0.00,,---,0.00,VWS V14.01,2013-03-06 11:07:00,
2013-03-06 05:12:00,31.6,5.2,29.74,WSW,248,1.3,5.6,32,0.00,,---,0.00,VWS V14.01,2013-03-06 11:12:00,
2013-03-06 05:17:00,31.6,5.2,29.76,West,270,2.7,4.7,32,0.00,,---,0.00,VWS V14.01,2013-03-06 11:17:00,
2013-03-06 05:22:00,31.5,5.0,29.76,WNW,292,2.5,4.7,32,0.00,,---,0.00,VWS V14.01,2013-03-06 11:22:00,
2013-03-06 05:27:00,31.3,4.9,29.76,NW,315,2.0,2.9,32,0.00,,---,0.00,VWS V14.01,2013-03-06 11:27:00,
2013-03-06 05:32:00,31.1,5.4,29.76,NNW,338,0.9,2.2,33,0.00,,---,0.00,VWS V14.01,2013-03-06 11:32:00,
2013-03-06 05:37:00,30.7,4.4,29.76,NNW,338,0.0,1.3,32,0.00,,---,0.00,VWS V14.01,2013-03-06 11:37:00,
2013-03-06 05:42:00,30.4,4.7,29.76,NNW,338,0.0,0.0,33,0.00,,---,0.00,VWS V14.01,2013-03-06 11:42:00,
2013-03-06 05:47:00,29.5,5.2,29.76,West,270,2.5,2.9,35,0.00,,---,0.00,VWS V14.01,2013-03-06 11:47:00,
2013-03-06 05:52:00,29.5,5.2,29.76,WNW,292,1.6,2.7,35,0.00,,---,0.00,VWS V14.01,2013-03-06 11:52:00,
2013-03-06 05:57:00,29.5,6.4,29.76,North,0,3.4,3.8,37,0.00,,---,0.00,VWS V14.01,2013-03-06 11:57:00,
2013-03-06 06:03:00,29.5,6.4,29.76,West,270,2.0,3.4,37,0.00,,---,0.00,VWS V14.01,2013-03-06 12:03:00,
2013-03-06 06:08:00,29.5,5.8,29.76,NW,315,1.3,2.7,36,0.00,,---,0.00,VWS V14.01,2013-03-06 12:08:00,
2013-03-06 06:13:00,29.5,5.8,29.76,WNW,292,1.6,2.5,36,0.00,,---,0.00,VWS V14.01,2013-03-06 12:13:00,
2013-03-06 06:18:00,29.5,5.8,29.79,NNW,338,2.5,2.9,36,0.00,,---,0.00,VWS V14.01,2013-03-06 12:18:00,
2013-03-06 06:23:00,29.5,5.8,29.79,WNW,292,2.7,2.7,36,0.00,,---,0.00,VWS V14.01,2013-03-06 12:23:00,
2013-03-06 06:28:00,29.3,5.7,29.79,WNW,292,1.6,2.7,36,0.00,,---,0.00,VWS V14.01,2013-03-06 12:28:00,
2013-03-06 06:33:00,29.3,5.7,29.79,NNW,338,1.1,1.6,36,0.00,,---,0.00,VWS V14.01,2013-03-06 12:33:00,
2013-03-06 06:38:00,28.9,5.3,29.79,NNW,338,1.6,1.6,36,0.00,,---,0.00,VWS V14.01,2013-03-06 12:38:00,
2013-03-06 06:43:00,28.8,5.8,29.79,North,0,1.6,2.0,37,0.00,,---,0.00,VWS V14.01,2013-03-06 12:43:00,
2013-03-06 06:48:00,28.6,6.2,29.79,NNW,338,2.5,2.9,38,0.00,,---,0.00,VWS V14.01,2013-03-06 12:48:00,
2013-03-06 06:53:00,28.8,6.4,29.79,NW,315,1.6,3.1,38,0.00,,---,0.00,VWS V14.01,2013-03-06 12:53:00,
2013-03-06 06:58:00,28.9,6.5,29.79,NW,315,1.1,2.9,38,0.00,,---,0.00,VWS V14.01,2013-03-06 12:58:00,
2013-03-06 07:03:00,28.8,5.8,29.79,NW,315,0.0,1.3,37,0.00,,---,0.00,VWS V14.01,2013-03-06 13:03:00,
2013-03-06 07:08:00,28.8,5.8,29.79,NW,315,0.0,0.0,37,0.00,,---,0.00,VWS V14.01,2013-03-06 13:08:00,
2013-03-06 07:13:00,28.8,5.8,29.79,NW,315,0.0,0.0,37,0.00,,---,0.00,VWS V14.01,2013-03-06 13:13:00,
2013-03-06 07:18:00,28.6,6.2,29.79,NNE,22,1.6,2.5,38,0.00,,---,0.00,VWS V14.01,2013-03-06 13:18:00,
2013-03-06 07:23:00,28.6,7.3,29.79,NNW,338,0.9,2.5,40,0.00,,---,0.00,VWS V14.01,2013-03-06 13:23:00,
2013-03-06 07:28:00,28.8,7.5,29.79,NNW,338,1.6,2.7,40,0.00,,---,0.00,VWS V14.01,2013-03-06 13:28:00,
2013-03-06 07:33:00,29.3,8.0,29.79,NW,315,2.2,2.7,40,0.00,,---,0.00,VWS V14.01,2013-03-06 13:33:00,
2013-03-06 07:38:00,29.5,8.1,29.79,NW,315,2.0,3.6,40,0.00,,---,0.00,VWS V14.01,2013-03-06 13:38:00,
2013-03-06 07:43:00,29.8,8.5,29.79,WNW,292,3.1,3.1,40,0.00,,---,0.00,VWS V14.01,2013-03-06 13:43:00,
2013-03-06 07:48:00,30.6,9.1,29.79,WNW,292,3.8,4.9,40,0.00,,---,0.00,VWS V14.01,2013-03-06 13:48:00,
2013-03-06 07:54:00,31.1,8.5,29.79,NNW,338,2.0,2.5,38,0.00,,---,0.00,VWS V14.01,2013-03-06 13:54:00,
2013-03-06 07:59:00,31.8,9.1,29.79,NW,315,2.5,2.5,38,0.00,,---,0.00,VWS V14.01,2013-03-06 13:59:00,
2013-03-06 08:04:00,32.4,9.0,29.82,WSW,248,2.9,3.1,37,0.00,,---,0.00,VWS V14.01,2013-03-06 14:04:00,
2013-03-06 08:09:00,32.7,8.1,29.82,NNW,338,2.7,4.9,35,0.00,,---,0.00,VWS V14.01,2013-03-06 14:09:00,
2013-03-06 08:14:00,33.3,9.2,29.82,WSW,248,4.0,4.0,36,0.00,,---,0.00,VWS V14.01,2013-03-06 14:14:00,
2013-03-06 08:19:00,33.4,8.1,29.82,WNW,292,1.3,2.2,34,0.00,,---,0.00,VWS V14.01,2013-03-06 14:19:00,
2013-03-06 08:24:00,34.2,8.7,29.82,NW,315,3.1,3.1,34,0.00,,---,0.00,VWS V14.01,2013-03-06 14:24:00,
2013-03-06 08:29:00,34.5,8.4,29.82,NNW,338,3.1,3.1,33,0.00,,---,0.00,VWS V14.01,2013-03-06 14:29:00,
2013-03-06 08:34:00,34.5,8.4,29.82,West,270,5.6,5.6,33,0.00,,---,0.00,VWS V14.01,2013-03-06 14:34:00,
2013-03-06 08:39:00,34.9,8.7,29.82,WNW,292,2.7,2.7,33,0.00,,---,0.00,VWS V14.01,2013-03-06 14:39:00,
2013-03-06 08:44:00,35.4,9.2,29.82,WSW,248,2.9,3.8,33,0.00,,---,0.00,VWS V14.01,2013-03-06 14:44:00,
2013-03-06 08:49:00,35.6,8.7,29.82,NNW,338,3.1,3.1,32,0.00,,---,0.00,VWS V14.01,2013-03-06 14:49:00,
2013-03-06 08:54:00,36.0,9.0,29.82,WNW,292,2.7,3.4,32,0.00,,---,0.00,VWS V14.01,2013-03-06 14:54:00,
2013-03-06 08:59:00,36.1,8.4,29.82,West,270,4.9,4.9,31,0.00,,---,0.00,VWS V14.01,2013-03-06 14:59:00,
2013-03-06 09:04:00,36.7,8.9,29.82,WNW,292,1.3,2.7,31,0.00,,---,0.00,VWS V14.01,2013-03-06 15:04:00,
2013-03-06 09:09:00,37.0,9.2,29.82,WNW,292,2.7,2.7,31,0.00,,---,0.00,VWS V14.01,2013-03-06 15:09:00,
2013-03-06 09:14:00,37.6,9.0,29.82,NE,45,1.6,2.9,30,0.00,,---,0.00,VWS V14.01,2013-03-06 15:14:00,
2013-03-06 09:19:00,38.1,9.4,29.82,NW,315,6.0,6.0,30,0.00,,---,0.00,VWS V14.01,2013-03-06 15:19:00,
2013-03-06 09:24:00,38.3,9.6,29.82,NNW,338,3.1,4.0,30,0.00,,---,0.00,VWS V14.01,2013-03-06 15:24:00,
2013-03-06 09:29:00,38.5,9.8,29.82,NNW,338,2.9,3.8,30,0.00,,---,0.00,VWS V14.01,2013-03-06 15:29:00,
2013-03-06 09:34:00,38.1,9.4,29.79,West,270,4.3,4.3,30,0.00,,---,0.00,VWS V14.01,2013-03-06 15:34:00,
2013-03-06 09:39:00,37.0,8.5,29.79,WNW,292,2.7,6.5,30,0.00,,---,0.00,VWS V14.01,2013-03-06 15:39:00,
2013-03-06 09:44:00,38.5,9.8,29.79,West,270,3.1,3.1,30,0.00,,---,0.00,VWS V14.01,2013-03-06 15:44:00,
2013-03-06 09:49:00,37.8,9.1,29.79,WSW,248,7.8,8.5,30,0.00,,---,0.00,VWS V14.01,2013-03-06 15:49:00,
2013-03-06 09:54:00,38.1,9.4,29.79,WNW,292,6.3,6.3,30,0.00,,---,0.00,VWS V14.01,2013-03-06 15:54:00,
2013-03-06 09:59:00,38.7,9.9,29.79,WSW,248,6.3,6.3,30,0.00,,---,0.00,VWS V14.01,2013-03-06 15:59:00,
2013-03-06 10:04:00,37.9,9.3,29.79,West,270,7.4,7.8,30,0.00,,---,0.00,VWS V14.01,2013-03-06 16:04:00,
2013-03-06 10:09:00,38.8,10.1,29.79,West,270,4.9,7.6,30,0.00,,---,0.00,VWS V14.01,2013-03-06 16:09:00,
2013-03-06 10:14:00,39.0,10.2,29.79,NNW,338,4.9,4.9,30,0.00,,---,0.00,VWS V14.01,2013-03-06 16:14:00,
2013-03-06 10:19:00,39.9,10.2,29.79,West,270,5.8,5.8,29,0.00,,---,0.00,VWS V14.01,2013-03-06 16:19:00,
2013-03-06 10:25:00,39.9,10.2,29.79,West,270,5.8,5.8,29,0.00,,---,0.00,VWS V14.01,2013-03-06 16:25:00,
2013-03-06 10:30:00,40.8,11.0,29.79,NNW,338,2.7,4.7,29,0.00,,---,0.00,VWS V14.01,2013-03-06 16:30:00,
2013-03-06 10:35:00,41.7,11.0,29.79,NNW,338,2.5,2.5,28,0.00,,---,0.00,VWS V14.01,2013-03-06 16:35:00,
2013-03-06 10:40:00,41.5,10.9,29.79,NW,315,3.8,6.0,28,0.00,,---,0.00,VWS V14.01,2013-03-06 16:40:00,
2013-03-06 10:45:00,41.9,11.2,29.79,WSW,248,2.9,7.2,28,0.00,,---,0.00,VWS V14.01,2013-03-06 16:45:00,
2013-03-06 10:50:00,41.5,10.9,29.79,NNW,338,3.6,6.3,28,0.00,,---,0.00,VWS V14.01,2013-03-06 16:50:00,
2013-03-06 10:55:00,42.4,11.7,29.79,NNE,22,2.0,4.0,28,0.00,,---,0.00,VWS V14.01,2013-03-06 16:55:00,
2013-03-06 11:00:00,41.4,10.7,29.79,SSW,202,2.9,6.9,28,0.00,,---,0.00,VWS V14.01,2013-03-06 17:00:00,
2013-03-06 11:05:00,42.6,11.8,29.79,NNW,338,2.9,4.9,28,0.00,,---,0.00,VWS V14.01,2013-03-06 17:05:00,
2013-03-06 11:10:00,43.7,12.8,29.79,NNE,22,4.7,5.4,28,0.00,,---,0.00,VWS V14.01,2013-03-06 17:10:00,
2013-03-06 11:15:00,44.6,12.7,29.79,SW,225,2.9,3.1,27,0.00,,---,0.00,VWS V14.01,2013-03-06 17:15:00,
2013-03-06 11:20:00,45.1,11.4,29.79,NW,315,0.0,5.4,25,0.00,,---,0.00,VWS V14.01,2013-03-06 17:20:00,
2013-03-06 11:25:00,44.8,11.1,29.79,West,270,3.8,5.4,25,0.00,,---,0.00,VWS V14.01,2013-03-06 17:25:00,
2013-03-06 11:30:00,45.5,11.7,29.79,West,270,3.8,4.3,25,0.00,,---,0.00,VWS V14.01,2013-03-06 17:30:00,
2013-03-06 11:35:00,45.7,11.9,29.79,North,0,1.3,4.7,25,0.00,,---,0.00,VWS V14.01,2013-03-06 17:35:00,
2013-03-06 11:40:00,45.5,11.7,29.79,SSW,202,2.7,4.9,25,0.00,,---,0.00,VWS V14.01,2013-03-06 17:40:00,
2013-03-06 11:45:00,45.3,11.6,29.79,WSW,248,6.9,6.9,25,0.00,,---,0.00,VWS V14.01,2013-03-06 17:45:00,
2013-03-06 11:50:00,44.6,11.0,29.82,South,180,3.8,4.9,25,0.00,,---,0.00,VWS V14.01,2013-03-06 17:50:00,
2013-03-06 11:55:00,46.0,12.2,29.82,North,0,1.6,8.1,25,0.00,,---,0.00,VWS V14.01,2013-03-06 17:55:00,
2013-03-06 12:00:00,46.2,12.4,29.82,West,270,4.7,6.3,25,0.00,,---,0.00,VWS V14.01,2013-03-06 18:00:00,
2013-03-06 12:05:00,45.9,12.0,29.79,SSW,202,4.9,7.4,25,0.00,,---,0.00,VWS V14.01,2013-03-06 18:05:00,
2013-03-06 12:10:00,45.5,8.9,29.79,SSE,158,1.1,5.8,22,0.00,,---,0.00,VWS V14.01,2013-03-06 18:10:00,
2013-03-06 12:15:00,47.5,12.5,29.79,WNW,292,2.7,4.7,24,0.00,,---,0.00,VWS V14.01,2013-03-06 18:15:00,
2013-03-06 12:20:00,47.7,12.7,29.79,WSW,248,2.5,7.2,24,0.00,,---,0.00,VWS V14.01,2013-03-06 18:20:00,
2013-03-06 12:25:00,47.3,10.4,29.79,WNW,292,4.9,7.4,22,0.00,,---,0.00,VWS V14.01,2013-03-06 18:25:00,
2013-03-06 12:31:00,47.7,10.7,29.79,WSW,248,2.5,3.4,22,0.00,,---,0.00,VWS V14.01,2013-03-06 18:31:00,
2013-03-06 12:36:00,46.9,10.1,29.76,South,180,2.0,4.3,22,0.00,,---,0.00,VWS V14.01,2013-03-06 18:36:00,
2013-03-06 12:41:00,47.8,10.9,29.76,SSE,158,2.5,3.8,22,0.00,,---,0.00,VWS V14.01,2013-03-06 18:41:00,
2013-03-06 12:46:00,47.1,12.2,29.74,South,180,3.4,8.7,24,0.00,,---,0.00,VWS V14.01,2013-03-06 18:46:00,
2013-03-06 12:51:00,47.1,12.2,29.74,West,270,6.0,6.3,24,0.00,,---,0.00,VWS V14.01,2013-03-06 18:51:00,
2013-03-06 12:56:00,46.8,11.9,29.74,SSE,158,2.5,7.8,24,0.00,,---,0.00,VWS V14.01,2013-03-06 18:56:00,
2013-03-06 13:01:00,47.5,12.5,29.74,WSW,248,4.3,5.8,24,0.00,,---,0.00,VWS V14.01,2013-03-06 19:01:00,
2013-03-06 13:06:00,47.1,12.2,29.74,South,180,5.4,5.8,24,0.00,,---,0.00,VWS V14.01,2013-03-06 19:06:00,
2013-03-06 13:11:00,47.3,12.4,29.74,SSW,202,3.4,4.3,24,0.00,,---,0.00,VWS V14.01,2013-03-06 19:11:00,
2013-03-06 13:16:00,48.0,13.0,29.74,SW,225,6.0,6.5,24,0.00,,---,0.00,VWS V14.01,2013-03-06 19:16:00,
2013-03-06 13:21:00,47.5,12.5,29.74,SW,225,6.3,8.1,24,0.00,,---,0.00,VWS V14.01,2013-03-06 19:21:00,
2013-03-06 13:26:00,48.0,13.0,29.74,WSW,248,5.4,5.4,24,0.00,,---,0.00,VWS V14.01,2013-03-06 19:26:00,
2013-03-06 13:31:00,47.7,12.7,29.74,WSW,248,5.8,6.0,24,0.00,,---,0.00,VWS V14.01,2013-03-06 19:31:00,
2013-03-06 13:36:00,47.7,12.7,29.74,WNW,292,2.7,5.4,24,0.00,,---,0.00,VWS V14.01,2013-03-06 19:36:00,
2013-03-06 13:41:00,48.0,13.0,29.74,South,180,3.8,4.3,24,0.00,,---,0.00,VWS V14.01,2013-03-06 19:41:00,
2013-03-06 13:46:00,48.6,13.4,29.74,ESE,112,3.6,7.6,24,0.00,,---,0.00,VWS V14.01,2013-03-06 19:46:00,
2013-03-06 13:51:00,48.9,13.7,29.74,South,180,3.8,5.4,24,0.00,,---,0.00,VWS V14.01,2013-03-06 19:51:00,
2013-03-06 13:56:00,48.4,10.3,29.74,SSW,202,5.6,7.2,21,0.00,,---,0.00,VWS V14.01,2013-03-06 19:56:00,
2013-03-06 14:01:00,48.9,13.7,29.74,SSW,202,4.7,5.4,24,0.00,,---,0.00,VWS V14.01,2013-03-06 20:01:00,
2013-03-06 14:06:00,49.3,14.0,29.74,SSW,202,3.6,3.8,24,0.00,,---,0.00,VWS V14.01,2013-03-06 20:06:00,
2013-03-06 14:11:00,48.7,10.6,29.74,SSW,202,3.6,6.5,21,0.00,,---,0.00,VWS V14.01,2013-03-06 20:11:00,
2013-03-06 14:16:00,49.3,14.0,29.71,South,180,3.1,8.5,24,0.00,,---,0.00,VWS V14.01,2013-03-06 20:16:00,
2013-03-06 14:22:00,49.5,11.2,29.71,West,270,3.6,5.8,21,0.00,,---,0.00,VWS V14.01,2013-03-06 20:22:00,
2013-03-06 14:27:00,49.1,10.9,29.71,SW,225,3.4,8.7,21,0.00,,---,0.00,VWS V14.01,2013-03-06 20:27:00,
2013-03-06 14:32:00,49.1,10.9,29.71,WSW,248,4.9,5.4,21,0.00,,---,0.00,VWS V14.01,2013-03-06 20:32:00,
2013-03-06 14:37:00,49.1,10.9,29.71,SSW,202,4.3,8.1,21,0.00,,---,0.00,VWS V14.01,2013-03-06 20:37:00,
2013-03-06 14:42:00,49.5,11.2,29.71,ESE,112,6.0,6.5,21,0.00,,---,0.00,VWS V14.01,2013-03-06 20:42:00,
2013-03-06 14:47:00,50.2,14.8,29.71,SW,225,5.4,5.4,24,0.00,,---,0.00,VWS V14.01,2013-03-06 20:47:00,
2013-03-06 14:52:00,50.0,11.6,29.71,WSW,248,4.9,5.6,21,0.00,,---,0.00,VWS V14.01,2013-03-06 20:52:00,
2013-03-06 14:57:00,50.4,11.9,29.71,SSE,158,2.0,6.5,21,0.00,,---,0.00,VWS V14.01,2013-03-06 20:57:00,
2013-03-06 15:02:00,50.7,12.2,29.68,WSW,248,3.8,6.0,21,0.00,,---,0.00,VWS V14.01,2013-03-06 21:02:00,
2013-03-06 15:07:00,50.7,12.2,29.68,South,180,2.7,3.8,21,0.00,,---,0.00,VWS V14.01,2013-03-06 21:07:00,
2013-03-06 15:12:00,51.3,12.7,29.68,NNE,22,2.7,4.9,21,0.00,,---,0.00,VWS V14.01,2013-03-06 21:12:00,
2013-03-06 15:17:00,52.0,13.3,29.68,SE,135,4.3,5.4,21,0.00,,---,0.00,VWS V14.01,2013-03-06 21:17:00,
2013-03-06 15:22:00,52.0,13.3,29.68,SW,225,2.9,3.8,21,0.00,,---,0.00,VWS V14.01,2013-03-06 21:22:00,
2013-03-06 15:27:00,51.8,13.1,29.68,WNW,292,3.6,6.5,21,0.00,,---,0.00,VWS V14.01,2013-03-06 21:27:00,
2013-03-06 15:32:00,51.6,13.0,29.68,SW,225,3.6,5.4,21,0.00,,---,0.00,VWS V14.01,2013-03-06 21:32:00,
2013-03-06 15:37:00,51.8,13.1,29.68,WNW,292,2.9,5.6,21,0.00,,---,0.00,VWS V14.01,2013-03-06 21:37:00,
2013-03-06 15:42:00,51.6,13.0,29.68,WSW,248,4.0,8.7,21,0.00,,---,0.00,VWS V14.01,2013-03-06 21:42:00,
2013-03-06 15:47:00,51.4,12.8,29.68,SSW,202,3.1,5.6,21,0.00,,---,0.00,VWS V14.01,2013-03-06 21:47:00,
2013-03-06 15:52:00,52.2,13.4,29.68,SSW,202,2.5,4.9,21,0.00,,---,0.00,VWS V14.01,2013-03-06 21:52:00,
2013-03-06 15:58:00,52.7,13.9,29.68,SSW,202,4.0,4.0,21,0.00,,---,0.00,VWS V14.01,2013-03-06 21:58:00,
2013-03-06 16:03:00,52.0,13.3,29.65,WSW,248,3.1,6.3,21,0.00,,---,0.00,VWS V14.01,2013-03-06 22:03:00,
2013-03-06 16:08:00,51.6,13.0,29.65,WSW,248,4.0,6.5,21,0.00,,---,0.00,VWS V14.01,2013-03-06 22:08:00,
2013-03-06 16:13:00,52.0,13.3,29.65,South,180,2.7,6.3,21,0.00,,---,0.00,VWS V14.01,2013-03-06 22:13:00,
2013-03-06 16:18:00,52.0,13.3,29.68,SE,135,4.9,4.9,21,0.00,,---,0.00,VWS V14.01,2013-03-06 22:18:00,
2013-03-06 16:23:00,51.4,12.8,29.68,SSE,158,2.0,5.6,21,0.00,,---,0.00,VWS V14.01,2013-03-06 22:23:00,
2013-03-06 16:28:00,51.3,12.7,29.68,SSE,158,3.1,3.1,21,0.00,,---,0.00,VWS V14.01,2013-03-06 22:28:00,
2013-03-06 16:33:00,51.1,12.5,29.68,SW,225,1.3,3.1,21,0.00,,---,0.00,VWS V14.01,2013-03-06 22:33:00,
2013-03-06 16:38:00,50.9,12.4,29.68,WSW,248,1.6,3.6,21,0.00,,---,0.00,VWS V14.01,2013-03-06 22:38:00,
2013-03-06 16:43:00,50.7,12.2,29.68,SW,225,0.9,3.1,21,0.00,,---,0.00,VWS V14.01,2013-03-06 22:43:00,
2013-03-06 16:48:00,50.4,11.9,29.68,SSW,202,2.7,3.1,21,0.00,,---,0.00,VWS V14.01,2013-03-06 22:48:00,
2013-03-06 16:53:00,50.5,12.1,29.68,South,180,1.6,2.9,21,0.00,,---,0.00,VWS V14.01,2013-03-06 22:53:00,
2013-03-06 16:58:00,50.4,11.9,29.68,ESE,112,1.1,2.0,21,0.00,,---,0.00,VWS V14.01,2013-03-06 22:58:00,
2013-03-06 17:03:00,50.4,11.9,29.65,SW,225,1.1,1.6,21,0.00,,---,0.00,VWS V14.01,2013-03-06 23:03:00,
2013-03-06 17:08:00,50.2,11.8,29.65,WNW,292,0.0,2.7,21,0.00,,---,0.00,VWS V14.01,2013-03-06 23:08:00,
2013-03-06 17:13:00,50.2,11.8,29.65,NW,315,0.0,0.0,21,0.00,,---,0.00,VWS V14.01,2013-03-06 23:13:00,
2013-03-06 17:18:00,49.8,14.5,29.68,North,0,0.9,1.1,24,0.00,,---,0.00,VWS V14.01,2013-03-06 23:18:00,
2013-03-06 17:23:00,49.8,14.5,29.68,East,90,1.3,1.6,24,0.00,,---,0.00,VWS V14.01,2013-03-06 23:23:00,
2013-03-06 17:28:00,49.6,14.3,29.68,East,90,2.5,2.5,24,0.00,,---,0.00,VWS V14.01,2013-03-06 23:28:00,
2013-03-06 17:33:00,49.3,14.0,29.65,East,90,0.0,2.5,24,0.00,,---,0.00,VWS V14.01,2013-03-06 23:33:00,
2013-03-06 17:38:00,49.1,13.9,29.65,East,90,0.0,0.0,24,0.00,,---,0.00,VWS V14.01,2013-03-06 23:38:00,
2013-03-06 17:43:00,48.9,13.7,29.65,East,90,1.1,1.3,24,0.00,,---,0.00,VWS V14.01,2013-03-06 23:43:00,
2013-03-06 17:48:00,48.6,16.1,29.68,East,90,0.0,1.1,27,0.00,,---,0.00,VWS V14.01,2013-03-06 23:48:00,
2013-03-06 17:54:00,48.7,15.4,29.68,East,90,1.1,1.3,26,0.00,,---,0.00,VWS V14.01,2013-03-06 23:54:00,
2013-03-06 17:59:00,48.6,15.2,29.68,East,90,1.1,1.1,26,0.00,,---,0.00,VWS V14.01,2013-03-06 23:59:00,
2013-03-06 18:04:00,48.2,15.8,29.65,East,90,1.3,1.6,27,0.00,,---,0.00,VWS V14.01,2013-03-07 00:04:00,
2013-03-06 18:09:00,48.0,15.6,29.65,East,90,0.0,0.0,27,0.00,,---,0.00,VWS V14.01,2013-03-07 00:09:00,
2013-03-06 18:14:00,47.5,15.2,29.65,East,90,0.9,0.9,27,0.00,,---,0.00,VWS V14.01,2013-03-07 00:14:00,
2013-03-06 18:19:00,47.3,15.0,29.68,East,90,0.0,0.0,27,0.00,,---,0.00,VWS V14.01,2013-03-07 00:19:00,
2013-03-06 18:24:00,46.8,14.6,29.68,East,90,0.0,0.0,27,0.00,,---,0.00,VWS V14.01,2013-03-07 00:24:00,
2013-03-06 18:29:00,46.2,14.9,29.68,East,90,0.0,0.0,28,0.00,,---,0.00,VWS V14.01,2013-03-07 00:29:00,
2013-03-06 18:34:00,45.5,14.3,29.68,East,90,1.3,1.3,28,0.00,,---,0.00,VWS V14.01,2013-03-07 00:34:00,
2013-03-06 18:39:00,45.3,14.1,29.68,ENE,68,1.6,1.6,28,0.00,,---,0.00,VWS V14.01,2013-03-07 00:39:00,
2013-03-06 18:44:00,45.3,14.1,29.68,ENE,68,1.3,1.6,28,0.00,,---,0.00,VWS V14.01,2013-03-07 00:44:00,
2013-03-06 18:49:00,45.1,14.0,29.68,ENE,68,1.6,1.6,28,0.00,,---,0.00,VWS V14.01,2013-03-07 00:49:00,
2013-03-06 18:54:00,44.8,13.7,29.68,ENE,68,1.3,2.0,28,0.00,,---,0.00,VWS V14.01,2013-03-07 00:54:00,
2013-03-06 18:59:00,44.2,13.2,29.68,ENE,68,0.9,1.1,28,0.00,,---,0.00,VWS V14.01,2013-03-07 00:59:00,
2013-03-06 19:04:00,44.1,13.9,29.68,ENE,68,1.3,2.0,29,0.00,,---,0.00,VWS V14.01,2013-03-07 01:04:00,
2013-03-06 19:10:00,43.9,12.9,29.68,ENE,68,1.3,2.2,28,0.00,,---,0.00,VWS V14.01,2013-03-07 01:10:00,
2013-03-06 19:15:00,43.9,12.9,29.68,ENE,68,2.0,2.0,28,0.00,,---,0.00,VWS V14.01,2013-03-07 01:15:00,
2013-03-06 19:20:00,43.5,13.4,29.68,ENE,68,0.0,0.0,29,0.00,,---,0.00,VWS V14.01,2013-03-07 01:20:00,
2013-03-06 19:25:00,43.3,12.4,29.68,ENE,68,0.0,0.0,28,0.00,,---,0.00,VWS V14.01,2013-03-07 01:25:00,
2013-03-06 19:30:00,43.3,13.2,29.68,ENE,68,2.0,2.0,29,0.00,,---,0.00,VWS V14.01,2013-03-07 01:30:00,
2013-03-06 19:35:00,43.2,13.1,29.68,ENE,68,0.0,0.0,29,0.00,,---,0.00,VWS V14.01,2013-03-07 01:35:00,
2013-03-06 19:40:00,43.0,12.1,29.68,ENE,68,1.1,1.1,28,0.00,,---,0.00,VWS V14.01,2013-03-07 01:40:00,
2013-03-06 19:45:00,43.0,12.1,29.68,ENE,68,0.0,0.9,28,0.00,,---,0.00,VWS V14.01,2013-03-07 01:45:00,
2013-03-06 19:50:00,42.6,12.6,29.68,ENE,68,1.3,1.6,29,0.00,,---,0.00,VWS V14.01,2013-03-07 01:50:00,
2013-03-06 19:55:00,42.4,12.4,29.68,ENE,68,0.0,1.1,29,0.00,,---,0.00,VWS V14.01,2013-03-07 01:55:00,
2013-03-06 20:00:00,42.1,12.1,29.68,ENE,68,0.0,0.9,29,0.00,,---,0.00,VWS V14.01,2013-03-07 02:00:00,
2013-03-06 20:05:00,42.1,12.1,29.68,ENE,68,1.3,2.2,29,0.00,,---,0.00,VWS V14.01,2013-03-07 02:05:00,
2013-03-06 20:10:00,42.1,12.1,29.68,ENE,68,0.0,1.6,29,0.00,,---,0.00,VWS V14.01,2013-03-07 02:10:00,
2013-03-06 20:15:00,41.7,11.8,29.68,ENE,68,0.0,0.0,29,0.00,,---,0.00,VWS V14.01,2013-03-07 02:15:00,
2013-03-06 20:20:00,41.4,11.5,29.68,ENE,68,0.0,0.0,29,0.00,,---,0.00,VWS V14.01,2013-03-07 02:20:00,
2013-03-06 20:25:00,41.2,11.4,29.68,ENE,68,1.3,1.3,29,0.00,,---,0.00,VWS V14.01,2013-03-07 02:25:00,
2013-03-06 20:30:00,41.0,12.0,29.68,NE,45,1.6,1.6,30,0.00,,---,0.00,VWS V14.01,2013-03-07 02:30:00,
2013-03-06 20:35:00,40.5,14.3,29.68,NE,45,1.1,2.2,34,0.00,,---,0.00,VWS V14.01,2013-03-07 02:35:00,
2013-03-06 20:40:00,39.9,13.2,29.68,North,0,0.0,2.2,33,0.00,,---,0.00,VWS V14.01,2013-03-07 02:40:00,
2013-03-06 20:45:00,39.0,15.0,29.68,WNW,292,2.0,2.0,37,0.00,,---,0.00,VWS V14.01,2013-03-07 02:45:00,
2013-03-06 20:50:00,38.5,13.9,29.71,NW,315,0.0,0.0,36,0.00,,---,0.00,VWS V14.01,2013-03-07 02:50:00,
2013-03-06 20:55:00,38.1,14.8,29.71,North,0,1.6,1.6,38,0.00,,---,0.00,VWS V14.01,2013-03-07 02:55:00,
2013-03-06 21:00:00,38.1,13.5,29.71,North,0,0.0,0.0,36,0.00,,---,0.00,VWS V14.01,2013-03-07 03:00:00,
2013-03-06 21:05:00,37.9,15.2,29.68,NNE,22,2.2,2.2,39,0.00,,---,0.00,VWS V14.01,2013-03-07 03:05:00,
2013-03-06 21:10:00,37.8,14.4,29.68,NNE,22,0.0,1.6,38,0.00,,---,0.00,VWS V14.01,2013-03-07 03:10:00,
2013-03-06 21:15:00,37.8,15.0,29.68,NNE,22,0.9,1.6,39,0.00,,---,0.00,VWS V14.01,2013-03-07 03:15:00,
2013-03-06 21:20:00,37.6,14.3,29.68,NNE,22,0.0,0.0,38,0.00,,---,0.00,VWS V14.01,2013-03-07 03:20:00,
2013-03-06 21:25:00,37.6,14.9,29.68,NNE,22,0.0,0.0,39,0.00,,---,0.00,VWS V14.01,2013-03-07 03:25:00,
2013-03-06 21:30:00,37.8,15.0,29.68,NNE,22,0.0,0.0,39,0.00,,---,0.00,VWS V14.01,2013-03-07 03:30:00,
2013-03-06 21:36:00,37.9,15.2,29.65,NNE,22,0.0,0.0,39,0.00,,---,0.00,VWS V14.01,2013-03-07 03:36:00,
2013-03-06 21:41:00,37.9,15.8,29.65,NNE,22,1.6,1.6,40,0.00,,---,0.00,VWS V14.01,2013-03-07 03:41:00,
2013-03-06 21:46:00,37.6,15.5,29.65,West,270,1.3,1.6,40,0.00,,---,0.00,VWS V14.01,2013-03-07 03:46:00,
2013-03-06 21:51:00,37.6,15.5,29.65,NW,315,0.0,0.0,40,0.00,,---,0.00,VWS V14.01,2013-03-07 03:51:00,
2013-03-06 21:56:00,37.4,15.3,29.65,NW,315,0.0,0.0,40,0.00,,---,0.00,VWS V14.01,2013-03-07 03:56:00,
2013-03-06 22:01:00,37.6,15.5,29.68,NNE,22,0.0,0.0,40,0.00,,---,0.00,VWS V14.01,2013-03-07 04:01:00,
2013-03-06 22:06:00,37.6,15.5,29.68,NNE,22,0.0,0.0,40,0.00,,---,0.00,VWS V14.01,2013-03-07 04:06:00,
2013-03-06 22:11:00,37.8,15.6,29.68,NNE,22,0.0,0.0,40,0.00,,---,0.00,VWS V14.01,2013-03-07 04:11:00,
2013-03-06 22:16:00,37.6,15.5,29.68,NNE,22,0.0,0.0,40,0.00,,---,0.00,VWS V14.01,2013-03-07 04:16:00,
2013-03-06 22:21:00,37.6,15.5,29.68,NNE,22,0.0,2.0,40,0.00,,---,0.00,VWS V14.01,2013-03-07 04:21:00,
2013-03-06 22:26:00,37.8,15.6,29.68,NNE,22,0.0,0.0,40,0.00,,---,0.00,VWS V14.01,2013-03-07 04:26:00,
2013-03-06 22:31:00,37.9,15.8,29.68,NNE,22,0.0,0.0,40,0.00,,---,0.00,VWS V14.01,2013-03-07 04:31:00,
2013-03-06 22:36:00,38.1,15.9,29.68,NNE,22,0.0,0.0,40,0.00,,---,0.00,VWS V14.01,2013-03-07 04:36:00,
2013-03-06 22:41:00,38.1,15.4,29.68,NNE,22,0.0,0.0,39,0.00,,---,0.00,VWS V14.01,2013-03-07 04:41:00,
2013-03-06 22:46:00,38.1,15.4,29.68,NNE,22,0.0,1.1,39,0.00,,---,0.00,VWS V14.01,2013-03-07 04:46:00,
2013-03-06 22:51:00,38.3,15.5,29.68,NNE,22,0.0,0.0,39,0.00,,---,0.00,VWS V14.01,2013-03-07 04:51:00,
2013-03-06 22:56:00,38.5,16.3,29.68,NNE,22,1.1,2.0,40,0.00,,---,0.00,VWS V14.01,2013-03-07 04:56:00,
2013-03-06 23:00:00,38.5,16.3,29.68,NNE,22,0.0,1.1,40,0.00,,---,0.00,VWS V14.01,2013-03-07 05:00:00,
2013-03-06 23:02:00,38.5,16.3,29.68,NNE,22,0.0,1.3,40,0.00,,---,0.00,VWS V14.01,2013-03-07 05:02:00,
2013-03-06 23:04:00,38.5,16.3,29.68,NNE,22,0.0,1.3,40,0.00,,---,0.00,VWS V14.01,2013-03-07 05:04:00,
2013-03-06 23:06:00,38.5,16.3,29.68,NNE,22,0.0,0.0,40,0.00,,---,0.00,VWS V14.01,2013-03-07 05:06:00,
2013-03-06 23:11:00,38.5,16.8,29.68,NNE,22,0.0,0.0,41,0.00,,---,0.00,VWS V14.01,2013-03-07 05:11:00,
2013-03-06 23:17:00,38.3,16.7,29.68,NNE,22,0.0,1.6,41,0.00,,---,0.00,VWS V14.01,2013-03-07 05:17:00,
2013-03-06 23:22:00,38.1,17.1,29.68,NNE,22,1.3,2.0,42,0.00,,---,0.00,VWS V14.01,2013-03-07 05:22:00,
2013-03-06 23:27:00,38.1,16.5,29.68,NNE,22,0.0,0.0,41,0.00,,---,0.00,VWS V14.01,2013-03-07 05:27:00,
2013-03-06 23:32:00,38.1,16.5,29.68,NNE,22,0.0,0.0,41,0.00,,---,0.00,VWS V14.01,2013-03-07 05:32:00,
2013-03-06 23:37:00,38.1,17.1,29.68,NNE,22,0.0,0.0,42,0.00,,---,0.00,VWS V14.01,2013-03-07 05:37:00,
2013-03-06 23:42:00,38.1,17.1,29.68,NNE,22,0.0,0.9,42,0.00,,---,0.00,VWS V14.01,2013-03-07 05:42:00,
2013-03-06 23:47:00,37.9,17.5,29.68,NNE,22,0.0,1.6,43,0.00,,---,0.00,VWS V14.01,2013-03-07 05:47:00,
2013-03-06 23:52:00,37.8,16.8,29.68,NNE,22,0.0,0.9,42,0.00,,---,0.00,VWS V14.01,2013-03-07 05:52:00,
2013-03-06 23:57:00,37.8,16.8,29.68,NNE,22,0.0,0.0,42,0.00,,---,0.00,VWS V14.01,2013-03-07 05:57:00,